リニア-スペースウォッチ彗星

P/2000 S4 ( LINEAR-Spacewatch )

English version
Home page
Updated on December 31, 2010

---------------------------------------------------------------------

・ プロフィール

発見日 2000年10月2日
発見光度 20.5等
発見者 T. Gehrels (Kitt Peak)

・ 軌道要素

Epoch 2000 Oct. 23.0 TT = JDT 2451840.5
T 2000 Oct. 19.10189 TT                                 MPC
q   2.2654403            (2000.0)            P               Q
n   0.05184436     Peri.  172.32581     +0.97574429     +0.21438589
a   7.1230887      Node   174.64405     -0.21745649     +0.97250834
e   0.6819582      Incl.   28.32732     -0.02521419     -0.09091880
P  19.0
From 33 observations 2000 Sept. 1-Nov. 21, mean residual 0".6.

・ 星図

・ 光度変化

        m1 = 13.5 + 5 logΔ + 15.0 log r

---------------------------------------------------------------------

軌道要素はM.P.E.C. 2010-X76に掲載されたものです。
星図は StellaNavigator Ver.2.0 for Windows (アストロアーツ編著 / アスキー出版局刊) で作成したものです。
光度グラフはComet for Windowsで作成したものです。

---------------------------------------------------------------------

Copyright(C) Seiichi Yoshida (comet@aerith.net). All rights reserved.